Lapse_Rate
5.8 5.6 5.9 5.7 5.4 5.2 5.0 5.0 5.3 5.5 5.7 5.8 5.8 5.8 5.9 6.3 6.4 6.3 6.3 6.3 6.5 6.5 6.6 6.8 7.0 7.0 7.0
5.4 5.7 5.3 5.5 5.1 5.0 5.1 5.2 5.4 5.6 5.7 5.3 5.6 5.9 6.4 6.5 6.5 6.6 6.3 6.5 6.6 6.6 6.7 6.9 6.9 6.9 7.1
5.8 5.2 5.3 5.4 5.0 5.0 4.9 4.8 5.4 5.4 5.5 5.7 6.0 6.4 6.5 6.5 6.6 6.4 6.4 6.6 6.5 6.7 6.8 6.8 6.8 6.9 7.0
5.6 5.3 5.3 5.3 5.1 5.0 4.6 4.8 5.3 5.5 5.7 5.9 6.1 6.1 6.5 6.6 6.5 6.3 6.6 6.6 6.6 6.7 6.8 6.8 6.7 6.7 6.7
5.4 5.3 5.2 5.1 5.1 4.9 5.1 5.2 5.3 5.6 5.8 5.8 6.1 6.5 6.6 6.5 6.5 6.5 6.7 6.6 6.6 6.7 6.7 6.6 6.6 6.4 6.6
5.3 5.2 5.1 4.9 4.7 4.8 5.0 5.3 5.6 5.8 6.1 6.1 6.3 6.4 6.3 6.4 6.6 6.7 6.8 6.7 6.6 6.6 6.4 6.3 6.1 6.2 6.7
5.2 4.9 5.2 4.8 4.7 4.6 5.1 5.3 5.7 5.8 5.9 6.1 6.4 6.3 6.4 6.6 6.7 6.6 6.6 6.6 6.6 6.4 6.1 6.1 5.8 6.2 6.1
5.2 5.3 5.3 5.1 5.1 4.7 5.2 5.6 5.6 5.9 6.2 6.3 6.4 6.4 6.5 6.7 6.7 6.6 6.6 6.5 6.4 6.2 6.2 5.9 5.8 5.9 6.1
5.1 5.2 5.3 5.1 5.1 5.1 5.3 6.0 6.1 6.1 6.4 6.4 6.5 6.5 6.7 6.7 6.6 6.6 6.6 6.5 6.4 6.4 6.3 5.4 5.8 5.7 6.0
5.2 5.0 5.3 5.3 5.4 5.5 5.9 6.1 6.3 6.3 6.5 6.6 6.7 6.6 6.7 6.7 6.7 6.6 6.5 6.5 6.5 6.4 6.2 5.8 5.9 5.9 6.0
5.8 5.1 5.3 5.3 5.6 5.8 6.1 6.3 6.3 6.4 6.5 6.5 6.6 6.7 6.9 6.7 6.6 6.5 6.6 6.5 6.5 6.5 6.3 6.2 6.0 6.2 6.0
6.0 6.0 5.7 5.7 5.9 6.0 6.1 6.1 6.4 6.5 6.6 6.6 6.6 6.8 6.8 6.7 6.6 6.7 6.6 6.6 6.7 6.6 6.6 6.6 6.5 6.4 6.4
6.0 6.1 6.2 6.0 6.0 6.0 6.0 6.2 6.5 6.6 6.6 6.7 6.8 6.8 6.7 6.7 6.8 6.7 6.6 6.5 6.7 6.8 6.8 6.8 6.8 6.7 6.7
6.1 6.2 6.3 6.2 6.1 6.2 6.3 6.5 6.6 6.7 6.7 6.8 6.8 6.8 6.7 6.6 6.7 6.7 6.7 6.6 6.7 6.9 7.0 6.9 6.8 6.7 6.8
6.5 6.4 6.3 6.2 6.3 6.3 6.4 6.5 6.5 6.6 6.7 6.8 6.8 6.7 6.6 6.6 6.7 6.5 6.6 6.6 6.7 6.9 6.8 6.7 6.6 6.6 6.5
6.7 6.5 6.3 6.3 6.4 6.2 6.4 6.5 6.5 6.4 6.6 6.6 6.6 6.6 6.6 6.5 6.5 6.5 6.6 6.6 6.6 6.5 6.4 6.4 6.4 6.3 6.2
6.3 6.4 6.3 6.3 6.2 6.3 6.5 6.4 6.6 6.4 6.5 6.5 6.5 6.5 6.4 6.5 6.5 6.5 6.6 6.6 6.5 6.4 6.3 6.2 6.2 6.1 5.9
Wind_Speed
1 2 4 6 9 8 7 6 5 3 2 2 2 5 1 5 8 10 14 17 21 23 26 29 30 22 19
3 3 3 5 8 6 6 4 2 3 4 2 2 4 2 3 8 11 15 18 21 23 26 30 26 18 10
3 2 1 2 2 2 2 2 4 4 4 5 5 5 2 4 7 8 13 16 18 22 26 28 22 15 7
2 2 2 3 1 3 3 3 2 1 2 5 6 4 4 3 4 8 11 14 17 19 23 25 17 20 18
2 2 3 2 6 4 3 2 2 2 2 3 3 4 3 2 3 6 10 12 15 18 21 19 9 15 22
4 3 3 3 3 4 4 3 3 4 3 3 2 2 3 1 3 6 9 11 14 17 19 18 11 13 16
5 4 5 7 6 5 4 3 3 3 3 2 2 2 2 1 3 6 8 10 11 14 17 20 7 12 17
5 5 3 6 6 6 6 5 3 2 2 2 2 2 1 2 3 6 8 8 9 11 14 16 14 16 17
6 8 9 15 12 7 5 5 2 3 3 2 2 2 0 1 3 5 5 8 8 10 12 13 12 19 20
5 6 9 12 16 6 7 6 3 2 4 4 3 2 2 1 1 3 2 5 6 10 10 11 10 11 12
4 4 3 4 4 6 6 3 2 1 4 3 2 2 1 1 1 1 2 2 3 5 9 11 11 9 4
5 5 4 3 2 4 6 6 5 3 8 4 2 2 2 1 1 1 1 2 1 1 3 4 9 9 10
6 5 4 3 5 4 7 8 7 5 5 3 2 3 2 1 2 1 2 2 1 1 1 2 2 2 3
6 3 4 5 5 4 3 4 3 2 3 3 4 3 3 2 1 2 2 1 1 2 2 1 1 1 3
5 7 6 5 5 4 3 3 3 4 4 3 4 3 1 4 2 3 3 2 2 2 2 2 2 4 3
6 7 7 7 6 5 2 3 4 4 4 4 5 3 1 4 6 3 3 3 2 3 2 2 2 2 3
8 8 7 6 9 6 5 4 4 4 4 5 4 3 4 4 2 11 3 3 3 3 3 2 2 2 3
Wind_Direction
195 144 165 165 185 172 164 182 202 182 187 229 291 207 262 325 331 329 331 331 327 331 329 329 321 306 295
184 157 167 186 188 176 183 191 212 218 229 226 205 182 214 319 328 330 333 332 334 335 337 339 340 320 297
164 126 129 154 143 141 181 213 241 235 234 232 216 218 236 312 311 337 338 336 337 341 346 343 343 347 326
131 129 139 116 116 167 190 210 219 207 214 227 220 224 247 262 312 340 344 337 342 348 350 342 350 31 46
135 148 145 142 200 170 187 161 194 218 213 222 210 192 201 249 319 346 349 344 347 353 350 348 24 34 66
154 169 169 187 174 163 143 168 212 202 196 167 180 189 195 197 349 340 349 354 359 357 357 5 62 67 63
147 168 175 190 148 156 174 167 184 164 185 166 182 183 181 117 4 353 3 2 10 7 4 16 72 81 86
145 166 171 162 185 161 163 140 105 162 200 193 146 185 196 115 22 10 4 13 13 16 13 25 53 106 96
114 143 176 164 153 132 150 156 169 189 196 183 170 163 112 57 22 21 28 40 30 27 22 27 36 79 82
123 137 159 163 167 180 159 169 148 161 187 177 167 180 154 119 67 36 43 40 34 33 39 39 50 69 78
170 149 169 167 157 166 165 148 140 116 177 141 161 159 89 133 121 83 60 33 42 33 38 55 60 75 82
175 166 178 196 170 138 133 115 86 115 154 149 131 162 127 142 175 111 120 99 72 44 29 52 62 83 83
185 171 174 150 137 116 105 100 90 88 106 112 112 140 124 172 139 135 147 153 131 170 84 63 75 56 98
170 129 126 156 173 170 154 155 155 148 62 105 130 148 146 171 169 171 168 173 155 189 160 124 137 126 112
189 163 168 172 183 182 136 151 169 165 170 163 119 131 154 151 168 202 186 195 179 135 160 180 202 203 183
178 165 166 176 172 165 157 184 176 174 165 162 151 145 162 227 227 170 171 183 153 168 181 172 158 138 181
177 177 172 172 175 168 179 176 181 177 165 162 171 165 167 182 135 212 197 171 160 174 185 179 132 118 99